Location: Sternwarte ZA, Rosenfeld-Brittheim
(48.2889°N, 8.6789°E)
Time: 20:44:38
(UTC+02:00)

ISS - Pass Details

Date: 22 July 2019
Orbit: 409 x 418 km, 51.6° (Epoch: 20 July)

Event Time Altitude Azimuth Distance (km) Brightness Sun altitude
Rises 01:24:13 0° 290° (WNW) 2,352 0.3 -21.3°
Reaches altitude 10° 01:26:20 10° 293° (WNW) 1,487 -0.7 -21.3°
Enters shadow 01:29:22 64° 340° (NNW) 462 -3.4 -21.3°
